Retour au catalogue

ARIANE 5 R/B

ActifHEO
NORAD 35757·ROCKET BODY·🇫🇷 France

Lancé Aug 21, 2009 depuis Guiana Space Centre

Loading…

Prochains Passages (prochaines 24 heures)

TLE

FraisSource: Space-Track

Époque: Sep 14, 2026, 08:17 UTC

1 35757U 09044C   26257.34569708  .00004046  00000-0  12431-2 0  9995
2 35757   1.8008 249.7232 7043077 300.1849   8.3502  2.58005996150792

Suivez ARIANE 5 R/B en temps réel avec AllMySat

Download on the App Store